Tracking 26922 objects as of 30-Jan-2023
HD Live streaming from Space Station
objects crossing your sky now

SL-12 R/B(AUX MOTOR)

Track SL-12 R/B(AUX MOTOR) now!
10-day predictions


NORAD ID: 32281
Int'l Code: 2007-052G
Perigee: 727.1 km
Apogee: 18,798.2 km
Inclination: 65.5 °
Period: 339.9 minutes
Semi major axis: 16133 km
RCS: 0.5624 m2 (medium)
Launch date: October 26, 2007
Source: Commonwealth of Independent States (former USSR) (CIS)
Launch site: TYURATAM MISSILE AND SPACE COMPLEX (TTMTR)

Note: This is a ROCKET BODY
Your satellite tracking list
Your tracking list is empty




NASA's NSSDC Master Catalog

Two Line Element Set (TLE):
1 32281U 07052G   23021.13071266 -.00000005  00000-0  35445-3 0  9994
2 32281  65.4945  10.9446 5600447 268.7212  30.1363  4.23646338235251
Source of the keplerian elements: AFSPC